SUD012 VILH-VQPR

Flight info

Callsign SUD012
Flight time N/A
Altitude 35100
Route TUNPU DCT KTM/N0455F350 B345 TUMLI G348 SUBSU SUBSU1
Aircraft A320/M-SDFGHILORVWY/S

Departure

Time 2026-04-22 15:59
Airport Leh Kushok Bakula Rimpochee Airport (VILH)

Arrival

Time N/A
Airport Paro International Airport (VQPR)
Time Latitude Longitude Altitude Speed Heading
2026-04-22 15:44 34.13705 77.54226 10691 ft 0 kts 333°
2026-04-22 15:47 34.13704 77.54226 10691 ft 2 kts 333°
2026-04-22 15:47 34.13688 77.54241 10691 ft 4 kts 275°
2026-04-22 15:47 34.13693 77.54267 10694 ft 2 kts 247°
2026-04-22 15:47 34.13695 77.54273 10694 ft 1 kts 247°
2026-04-22 15:49 34.13702 77.54266 10694 ft 2 kts 341°
2026-04-22 15:49 34.13710 77.54279 10696 ft 1 kts 69°
2026-04-22 15:50 34.13710 77.54282 10696 ft 1 kts 76°
2026-04-22 15:50 34.13715 77.54306 10698 ft 5 kts 79°
2026-04-22 15:50 34.13686 77.54371 10702 ft 15 kts 148°
2026-04-22 15:51 34.13650 77.54415 10704 ft 0 kts 104°
2026-04-22 15:51 34.13652 77.54417 10705 ft 0 kts 78°
2026-04-22 15:51 34.13661 77.54430 10706 ft 5 kts 49°
2026-04-22 15:51 34.13699 77.54503 10714 ft 15 kts 66°
2026-04-22 15:52 34.13753 77.54650 10729 ft 23 kts 67°
2026-04-22 15:52 34.13819 77.54828 10747 ft 12 kts 67°
2026-04-22 15:52 34.13784 77.54894 10751 ft 17 kts 172°
2026-04-22 15:52 34.13724 77.54907 10749 ft 6 kts 178°
2026-04-22 15:53 34.13707 77.54921 10749 ft 2 kts 124°
2026-04-22 15:53 34.13701 77.54952 10752 ft 6 kts 95°
2026-04-22 15:53 34.13719 77.55032 10760 ft 15 kts 71°
2026-04-22 15:53 34.13761 77.55189 10774 ft 24 kts 77°
2026-04-22 15:54 34.13823 77.55397 10797 ft 29 kts 69°
2026-04-22 15:54 34.13889 77.55622 10814 ft 25 kts 68°
2026-04-22 15:54 34.13933 77.55775 10828 ft 14 kts 72°
2026-04-22 15:54 34.13946 77.55845 10835 ft 4 kts 88°
2026-04-22 15:55 34.13946 77.55850 10837 ft 0 kts 90°
2026-04-22 15:56 34.13946 77.55857 10837 ft 2 kts 95°
2026-04-22 15:56 34.13939 77.55895 10850 ft 8 kts 94°
2026-04-22 15:56 34.13960 77.55879 10837 ft 11 kts 275°
2026-04-22 15:57 34.13936 77.55752 10827 ft 18 kts 244°
2026-04-22 15:57 34.13913 77.55694 10822 ft 0 kts 249°
2026-04-22 15:57 34.13911 77.55690 10821 ft 4 kts 249°
2026-04-22 15:58 34.13858 77.55513 10804 ft 54 kts 251°
2026-04-22 15:58 34.13656 77.54807 10737 ft 121 kts 251°
2026-04-22 15:58 34.13317 77.53632 10634 ft 172 kts 250°
2026-04-22 15:58 34.12871 77.52235 11112 ft 178 kts 252°
2026-04-22 15:59 34.12439 77.50796 11538 ft 192 kts 253°
2026-04-22 15:59 34.11993 77.49231 11698 ft 202 kts 251°
2026-04-22 15:59 34.11526 77.47602 11827 ft 209 kts 251°
2026-04-22 15:59 34.11067 77.45913 11985 ft 214 kts 257°
2026-04-22 16:00 34.10950 77.44735 12308 ft 199 kts 277°
2026-04-22 16:00 34.11401 77.42802 13008 ft 177 kts 295°
2026-04-22 16:00 34.11971 77.41479 13152 ft 180 kts 301°
2026-04-22 16:00 34.12634 77.40175 12997 ft 188 kts 303°
2026-04-22 16:01 34.13415 77.38789 12821 ft 209 kts 306°
2026-04-22 16:01 34.14284 77.37318 12942 ft 222 kts 302°
2026-04-22 16:01 34.15213 77.35763 13061 ft 235 kts 310°
2026-04-22 16:01 34.16322 77.34234 13189 ft 249 kts 312°
2026-04-22 16:02 34.17529 77.32635 13313 ft 266 kts 312°
2026-04-22 16:02 34.18817 77.30939 13432 ft 283 kts 310°
2026-04-22 16:02 34.19614 77.29660 13514 ft 294 kts 303°
2026-04-22 16:02 34.20749 77.27514 13633 ft 312 kts 302°
2026-04-22 16:03 34.21923 77.25218 13755 ft 329 kts 301°
2026-04-22 16:03 34.23216 77.22850 13898 ft 346 kts 304°
2026-04-22 16:03 34.24340 77.20228 14025 ft 360 kts 290°
2026-04-22 16:03 34.24994 77.17258 14144 ft 373 kts 281°
2026-04-22 16:04 34.25426 77.14133 14430 ft 379 kts 279°
2026-04-22 16:04 34.25843 77.10984 14932 ft 379 kts 279°
2026-04-22 16:04 34.26268 77.07842 15523 ft 379 kts 279°
2026-04-22 16:04 34.26705 77.04692 16022 ft 382 kts 279°
2026-04-22 16:05 34.27309 77.01564 16533 ft 385 kts 291°
2026-04-22 16:05 34.28680 76.98776 16998 ft 390 kts 310°
2026-04-22 16:05 34.30765 76.96674 17455 ft 395 kts 330°
2026-04-22 16:05 34.33342 76.95506 17938 ft 400 kts 349°
2026-04-22 16:06 34.36130 76.95415 18423 ft 405 kts
2026-04-22 16:06 34.38836 76.96430 18886 ft 411 kts 26°
2026-04-22 16:06 34.41166 76.98460 19318 ft 416 kts 45°
2026-04-22 16:06 34.42869 77.01295 19721 ft 420 kts 64°
2026-04-22 16:07 34.43767 77.04661 20132 ft 424 kts 82°
2026-04-22 16:07 34.43764 77.08201 20557 ft 426 kts 101°
2026-04-22 16:07 34.42851 77.11626 20957 ft 426 kts 119°
2026-04-22 16:07 34.41124 77.14530 21337 ft 425 kts 137°
2026-04-22 16:08 34.38947 77.16964 21720 ft 427 kts 140°
2026-04-22 16:08 34.36719 77.19360 22143 ft 430 kts 140°
2026-04-22 16:08 34.34441 77.21717 22570 ft 431 kts 145°
2026-04-22 16:08 34.32025 77.23892 22963 ft 433 kts 146°
2026-04-22 16:09 34.29573 77.26022 23385 ft 436 kts 147°
2026-04-22 16:09 34.27083 77.28138 23773 ft 438 kts 147°
2026-04-22 16:09 34.24580 77.30251 24099 ft 440 kts 147°
2026-04-22 16:09 34.22062 77.32381 24422 ft 443 kts 147°
2026-04-22 16:10 34.19540 77.34525 24738 ft 445 kts 147°
2026-04-22 16:10 34.17006 77.36688 25054 ft 447 kts 147°
2026-04-22 16:10 34.14460 77.38868 25370 ft 449 kts 147°
2026-04-22 16:10 34.11905 77.41061 25700 ft 451 kts 147°
2026-04-22 16:11 34.09344 77.43261 26010 ft 453 kts 146°
2026-04-22 16:11 34.06767 77.45468 26318 ft 455 kts 146°
2026-04-22 16:11 34.04179 77.47681 26606 ft 457 kts 146°
2026-04-22 16:11 34.01579 77.49900 26869 ft 459 kts 146°
2026-04-22 16:12 33.98972 77.52120 27150 ft 461 kts 146°
2026-04-22 16:12 33.96346 77.54354 27421 ft 463 kts 146°
2026-04-22 16:12 33.93725 77.56630 27669 ft 465 kts 143°
2026-04-22 16:12 33.91337 77.59280 27913 ft 469 kts 134°
2026-04-22 16:13 33.89291 77.62351 28181 ft 471 kts 127°
2026-04-22 16:13 33.87391 77.65508 28434 ft 473 kts 127°
2026-04-22 16:13 33.85460 77.68709 28657 ft 474 kts 126°
2026-04-22 16:13 33.83513 77.71921 28901 ft 475 kts 127°
2026-04-22 16:14 33.81560 77.75134 29159 ft 476 kts 127°
2026-04-22 16:14 33.79602 77.78348 29382 ft 477 kts 127°
2026-04-22 16:14 33.77640 77.81570 29626 ft 478 kts 127°
2026-04-22 16:14 33.75682 77.84786 29921 ft 477 kts 127°
2026-04-22 16:15 33.73729 77.88000 30210 ft 476 kts 126°
2026-04-22 16:15 33.71774 77.91212 30486 ft 475 kts 126°
2026-04-22 16:15 33.69824 77.94413 30728 ft 475 kts 126°
2026-04-22 16:15 33.67873 77.97610 30963 ft 475 kts 127°
2026-04-22 16:16 33.65919 78.00810 31141 ft 476 kts 127°
2026-04-22 16:16 33.63960 78.04016 31367 ft 476 kts 127°
2026-04-22 16:16 33.62003 78.07212 31641 ft 474 kts 126°
2026-04-22 16:16 33.60053 78.10390 31882 ft 474 kts 127°
2026-04-22 16:17 33.58098 78.13577 32115 ft 474 kts 126°
2026-04-22 16:17 33.56150 78.16754 32361 ft 473 kts 126°
2026-04-22 16:17 33.54203 78.19926 32615 ft 472 kts 126°
2026-04-22 16:17 33.52251 78.23100 32844 ft 472 kts 126°
2026-04-22 16:18 33.50306 78.26263 33080 ft 472 kts 126°
2026-04-22 16:18 33.48362 78.29425 33309 ft 471 kts 126°
2026-04-22 16:18 33.46417 78.32584 33542 ft 471 kts 126°
2026-04-22 16:18 33.44471 78.35741 33771 ft 470 kts 126°
2026-04-22 16:19 33.42554 78.38846 34004 ft 470 kts 126°
2026-04-22 16:19 33.40612 78.41991 34225 ft 470 kts 126°
2026-04-22 16:19 33.38671 78.45128 34437 ft 469 kts 126°
2026-04-22 16:19 33.36726 78.48266 34625 ft 469 kts 126°
2026-04-22 16:20 33.34783 78.51396 34815 ft 469 kts 126°
2026-04-22 16:20 33.32839 78.54530 35012 ft 469 kts 126°
2026-04-22 16:20 33.30896 78.57657 35200 ft 469 kts 126°
2026-04-22 16:20 33.28949 78.60787 35382 ft 468 kts 127°
2026-04-22 16:21 33.27006 78.63911 35547 ft 468 kts 127°
2026-04-22 16:21 33.25065 78.67030 35696 ft 469 kts 127°
2026-04-22 16:21 33.23124 78.70150 35838 ft 468 kts 126°
2026-04-22 16:21 33.21175 78.73283 35981 ft 468 kts 126°
2026-04-22 16:22 33.17318 78.79482 36276 ft 468 kts 127°
2026-04-22 16:22 33.15371 78.82593 36420 ft 468 kts 127°
2026-04-22 16:22 33.13426 78.85698 36532 ft 468 kts 127°
2026-04-22 16:23 33.09532 78.91915 36817 ft 467 kts 127°
2026-04-22 16:23 33.07591 78.95017 36951 ft 467 kts 127°
2026-04-22 16:23 33.05654 78.98113 37081 ft 467 kts 127°
2026-04-22 16:24 33.03706 79.01225 37187 ft 467 kts 127°
2026-04-22 16:24 32.99821 79.07408 37467 ft 465 kts 127°
2026-04-22 16:24 32.97885 79.10477 37687 ft 462 kts 127°
2026-04-22 16:25 32.95958 79.13531 37844 ft 460 kts 127°
2026-04-22 16:25 32.92119 79.19609 38110 ft 459 kts 127°
2026-04-22 16:25 32.90210 79.22633 38253 ft 458 kts 127°
2026-04-22 16:26 32.88297 79.25665 38390 ft 458 kts 127°
2026-04-22 16:26 32.86386 79.28689 38517 ft 457 kts 127°
2026-04-22 16:26 32.84479 79.31703 38665 ft 455 kts 127°
2026-04-22 16:26 32.82579 79.34706 38792 ft 454 kts 127°
2026-04-22 16:27 32.80680 79.37701 38936 ft 453 kts 127°
2026-04-22 16:27 32.78786 79.40689 39047 ft 452 kts 127°
2026-04-22 16:27 32.76898 79.43663 39161 ft 450 kts 127°
2026-04-22 16:27 32.75012 79.46630 39186 ft 451 kts 127°
2026-04-22 16:28 32.71212 79.52601 39183 ft 455 kts 127°
2026-04-22 16:28 32.67388 79.58604 39157 ft 457 kts 127°
2026-04-22 16:29 32.63531 79.64650 39159 ft 460 kts 127°
2026-04-22 16:29 32.59648 79.70705 39163 ft 462 kts 127°
2026-04-22 16:30 32.55750 79.76783 39132 ft 463 kts 127°
2026-04-22 16:30 32.51859 79.82858 39159 ft 463 kts 127°
2026-04-22 16:31 32.47964 79.88921 39127 ft 462 kts 127°
2026-04-22 16:31 32.44071 79.94976 39134 ft 462 kts 127°
2026-04-22 16:32 32.40211 80.00978 39145 ft 461 kts 127°
2026-04-22 16:32 32.36316 80.07003 39140 ft 461 kts 127°
2026-04-22 16:33 32.32412 80.13025 39162 ft 461 kts 127°
2026-04-22 16:33 32.28519 80.19049 39163 ft 461 kts 127°
2026-04-22 16:34 32.24624 80.25066 39156 ft 461 kts 127°
2026-04-22 16:34 32.20723 80.31068 39170 ft 461 kts 127°
2026-04-22 16:35 32.16818 80.37059 39172 ft 461 kts 127°
2026-04-22 16:35 32.12898 80.43068 39191 ft 461 kts 127°
2026-04-22 16:36 32.08990 80.49060 39179 ft 461 kts 127°
2026-04-22 16:36 32.05077 80.55049 39185 ft 461 kts 127°
2026-04-22 16:37 32.01158 80.61034 39199 ft 461 kts 128°
2026-04-22 16:37 31.97230 80.67016 39175 ft 462 kts 128°
2026-04-22 16:38 31.93298 80.72999 39197 ft 462 kts 128°
2026-04-22 16:38 31.89358 80.78988 39180 ft 463 kts 128°
2026-04-22 16:39 31.85415 80.84973 39182 ft 463 kts 128°
2026-04-22 16:39 31.81470 80.90950 39201 ft 463 kts 128°
2026-04-22 16:40 31.77518 80.96928 39187 ft 462 kts 128°
2026-04-22 16:41 31.71593 81.05880 39200 ft 463 kts 128°
2026-04-22 16:41 31.67631 81.11842 39190 ft 463 kts 128°
2026-04-22 16:42 31.63672 81.17806 39210 ft 463 kts 128°
2026-04-22 16:42 31.59711 81.23770 39204 ft 464 kts 128°
2026-04-22 16:43 31.55735 81.29730 39236 ft 464 kts 128°
2026-04-22 16:43 31.51748 81.35683 39229 ft 464 kts 128°
2026-04-22 16:44 31.47787 81.41597 39203 ft 464 kts 128°
2026-04-22 16:44 31.43803 81.47555 39228 ft 465 kts 128°
2026-04-22 16:45 31.39809 81.53515 39220 ft 465 kts 128°
2026-04-22 16:45 31.35807 81.59470 39224 ft 466 kts 128°
2026-04-22 16:46 31.31797 81.65433 39241 ft 466 kts 128°
2026-04-22 16:46 31.27780 81.71397 39239 ft 466 kts 128°
2026-04-22 16:47 31.23762 81.77341 39232 ft 466 kts 129°
2026-04-22 16:47 31.20427 81.82271 39226 ft 466 kts 129°
2026-04-22 16:48 31.15735 81.89212 39228 ft 465 kts 129°
2026-04-22 16:48 31.11719 81.95144 39239 ft 466 kts 129°
2026-04-22 16:49 31.07696 82.01063 39230 ft 466 kts 129°
2026-04-22 16:49 31.03669 82.06972 39238 ft 465 kts 129°
2026-04-22 16:50 31.02335 82.08929 39238 ft 465 kts 129°